Weather History for Yakima, WA

Change the Weather History Date:

Thursday, February 7, 2013

  Actual Average Record
Temperature  
Mean Temperature 41 °F 35 °F  
Max Temperature 53 °F 44 °F 60 °F (1953)
Min Temperature 28 °F 25 °F -4 °F (2014)
Degree Days  
Heating Degree Days 24 30  
Month to date heating degree days 175 215  
Since 1 July heating degree days 3444 3933  
Cooling Degree Days 0 0  
Month to date cooling degree days 0 0  
Year to date cooling degree days 0 0  
Moisture  
Dew Point 26 °F    
Average Humidity 57    
Maximum Humidity 85    
Minimum Humidity 28    
Precipitation  
Precipitation 0.00 in 0.03 in 0.79 in (2002)
Month to date precipitation T 0.20  
Year to date precipitation 0.10 1.34  
Snow  
Snow 0.00 in 0.10 in 1.70 in (1985)
Month to date snowfall 0.0 0.8  
Year to date snowfall 1.1 6.1  
Since 1 July snowfall 15.3 19.1  
Snow Depth 0.00 in    
Sea Level Pressure  
Sea Level Pressure 29.98 in    
Wind  
Wind Speed 3 mph (West)    
Max Wind Speed 9 mph    
Max Gust Speed 14 mph    
Visibility 10 miles    
Events      
T = Trace of Precipitation, MM = Missing Value Source: NWS Daily Summary

Daily Weather History Graph

Daily Weather History Graph

Search for Another Location

Airport:

Trip Planner

Search our weather history database for the weather conditions in past years. The results will help you decide how hot, cold, wet, or windy it might be!

Date:

Astronomy

Feb. 07, 2013 Rise Set
Actual Time 7:17 AM PST 5:15 PM PST
Civil Twilight 6:45 AM PST 5:47 PM PST
Nautical Twilight 6:10 AM PST 6:23 PM PST
Astronomical Twilight 5:34 AM PST 6:58 PM PST
Moon 5:07 AM PST (2/7) 2:41 PM PST (2/7)
Length of Visible Light 11h 01m
Length of Day
9h 58m
Waning Crescent, 8% of the Moon is Illuminated
Feb 7
Waning Crescent
Feb 9
New
Feb 17
First Quarter
Feb 25
Full
Mar 4
Last Quarter

Hourly Weather History & Observations

Time (PST) Temp. Windchill Dew Point Humidity Pressure Visibility Wind Dir Wind Speed Gust Speed Precip Events Conditions
12:53 AM 37.0 °F 31.6 °F 30.0 °F 76% 29.89 in 10.0 mi West 6.9 mph - N/A   Mostly Cloudy
1:53 AM 37.0 °F 31.6 °F 30.0 °F 76% 29.89 in 10.0 mi WNW 6.9 mph - N/A   Scattered Clouds
2:53 AM 36.0 °F - 30.9 °F 82% 29.89 in 10.0 mi Calm Calm - N/A   Overcast
3:53 AM 34.0 °F - 28.9 °F 82% 29.88 in 10.0 mi Calm Calm - N/A   Partly Cloudy
4:53 AM 36.0 °F 32.1 °F 30.0 °F 79% 29.89 in 10.0 mi Variable 4.6 mph - N/A   Mostly Cloudy
5:53 AM 33.1 °F 30.0 °F 28.9 °F 85% 29.91 in 10.0 mi WSW 3.5 mph - N/A   Mostly Cloudy
6:53 AM 30.0 °F 26.5 °F 26.1 °F 85% 29.94 in 10.0 mi West 3.5 mph - N/A   Clear
7:53 AM 30.0 °F - 26.1 °F 85% 29.96 in 10.0 mi Calm Calm - N/A   Clear
8:53 AM 37.9 °F 34.4 °F 32.0 °F 79% 29.98 in 10.0 mi West 4.6 mph - N/A   Clear
9:53 AM 44.1 °F - 32.0 °F 63% 29.98 in 10.0 mi Calm Calm - N/A   Clear
10:53 AM 46.0 °F - 30.9 °F 56% 29.99 in 10.0 mi Calm Calm - N/A   Clear
11:53 AM 50.0 °F - 28.9 °F 44% 29.96 in 10.0 mi Calm Calm - N/A   Clear
12:53 PM 51.1 °F - 26.1 °F 38% 29.96 in 10.0 mi Calm Calm - N/A   Scattered Clouds
1:53 PM 52.0 °F - 23.0 °F 32% 29.95 in 10.0 mi West 5.8 mph - N/A   Scattered Clouds
2:53 PM 51.1 °F - 19.9 °F 29% 29.95 in 10.0 mi Calm Calm - N/A   Mostly Cloudy
3:53 PM 51.1 °F - 21.0 °F 31% 29.96 in 10.0 mi SW 10.4 mph - N/A   Mostly Cloudy
4:53 PM 46.0 °F 43.9 °F 24.1 °F 42% 29.98 in 10.0 mi West 4.6 mph - N/A   Mostly Cloudy
5:53 PM 44.1 °F 39.5 °F 25.0 °F 47% 30.01 in 10.0 mi NW 8.1 mph - N/A   Mostly Cloudy
6:53 PM 44.1 °F - 24.1 °F 45% 30.04 in 10.0 mi Calm Calm - N/A   Overcast
7:53 PM 39.9 °F 35.8 °F 23.0 °F 51% 30.06 in 10.0 mi NNW 5.8 mph - N/A   Clear
8:53 PM 37.0 °F - 21.9 °F 54% 30.07 in 10.0 mi Calm Calm - N/A   Clear
9:53 PM 32.0 °F - 21.9 °F 66% 30.09 in 10.0 mi Calm Calm - N/A   Clear
10:53 PM 30.0 °F 25.2 °F 21.9 °F 72% 30.10 in 10.0 mi West 4.6 mph - N/A   Clear
11:53 PM 32.0 °F 27.5 °F 21.0 °F 64% 30.10 in 10.0 mi West 4.6 mph - N/A   Clear